Wind_Speed
15 15 13 13 12 15 16 17 18 18 17 18 19 19 21 23 25 25 25 24 26 27 28 27 28 27 27 27 27 28 29 29 28 26 21 18 19 19 20 20 18 17 17
13 14 13 13 15 16 17 17 17 16 17 19 19 20 22 22 22 22 23 24 25 26 26 27 27 27 27 26 26 26 27 29 29 29 28 23 20 20 19 20 18 17 17
12 14 14 14 16 17 17 16 17 17 17 17 18 19 20 20 19 19 21 22 23 24 25 26 26 25 25 23 24 26 26 28 29 31 31 30 28 26 23 20 18 18 17
14 15 15 16 18 18 17 16 17 17 17 17 18 18 18 18 15 17 18 19 23 24 24 24 25 24 25 25 24 25 27 27 28 30 32 32 31 31 29 24 20 20 20
14 15 18 18 19 18 17 17 18 17 17 17 18 18 17 15 14 14 16 17 19 21 22 22 23 24 24 25 25 26 26 26 26 27 29 30 32 32 32 28 23 21 21
15 15 18 19 19 18 18 17 18 17 16 18 18 17 16 14 13 14 15 16 17 19 19 20 22 22 22 23 24 24 24 25 26 27 27 29 31 31 32 31 26 25 23
16 15 17 17 17 18 18 16 16 14 15 17 18 17 14 13 12 12 12 13 15 16 17 18 20 21 21 21 21 23 22 23 25 25 26 27 28 31 32 32 28 26 27
17 16 16 17 16 17 17 15 15 13 13 14 16 16 14 12 11 10 9 10 12 13 15 16 18 19 19 19 19 21 22 23 24 24 23 24 25 27 30 32 31 29 26
14 16 15 15 15 16 16 14 13 12 12 11 13 14 13 11 9 7 7 7 9 10 12 13 15 16 16 17 17 20 20 21 23 23 22 22 22 24 25 28 30 31 29
14 12 12 12 15 16 16 15 13 12 11 11 10 13 13 11 9 6 5 5 6 6 8 9 11 12 14 15 17 18 18 19 22 23 22 22 22 20 21 22 26 29 29
14 13 12 11 11 12 13 13 12 13 12 12 12 11 12 13 11 9 7 5 4 4 4 5 8 10 12 15 17 18 16 16 20 20 20 22 22 22 18 19 21 24 27
14 14 13 12 10 9 10 10 11 11 12 12 13 11 12 13 12 11 10 9 5 3 2 3 7 7 11 14 15 17 15 14 18 20 20 19 21 23 22 16 16 19 21
14 14 14 14 13 11 10 11 10 10 10 11 12 12 13 13 13 12 10 8 6 2 2 1 4 6 9 12 14 14 14 13 16 18 19 18 18 21 24 22 13 14 16
15 15 14 13 14 15 13 13 13 11 10 10 11 12 13 13 13 12 11 10 7 5 2 1 4 7 9 11 12 12 11 12 14 16 18 19 19 19 21 24 20 13 14
15 15 14 13 13 14 15 15 14 13 12 11 10 11 12 14 14 14 13 11 9 6 5 4 5 6 7 11 11 10 10 9 10 14 18 19 19 20 20 20 23 21 16
16 16 16 15 14 14 15 16 16 14 13 12 12 12 13 14 14 15 15 14 12 9 8 7 6 8 8 9 10 10 8 8 8 11 15 17 17 19 19 20 19 22 22
18 17 16 15 15 15 15 15 16 16 15 14 14 13 13 14 15 16 17 16 14 13 12 10 9 8 8 8 9 9 8 5 5 8 11 14 16 16 16 18 19 20 21
20 19 18 16 15 16 17 17 17 17 16 16 15 14 13 14 15 15 16 15 15 15 13 12 10 8 7 8 11 10 7 3 3 5 7 10 13 14 14 14 16 18 18
21 20 18 17 17 17 17 18 18 18 18 18 17 16 15 15 14 13 14 15 14 13 13 12 12 11 8 8 9 10 9 6 4 5 6 9 10 11 11 11 12 13 13
24 22 21 21 21 21 19 18 18 19 19 19 18 18 17 18 17 15 14 14 14 13 14 15 14 12 10 8 8 9 6 7 5 7 6 9 12 11 9 10 10 10 10
27 25 24 23 23 24 23 21 21 20 21 21 21 22 21 20 19 17 17 16 15 14 14 15 16 14 12 8 7 8 7 8 6 8 12 13 15 13 9 7 9 10 9
33 32 29 27 25 26 26 23 23 23 22 22 22 23 23 22 20 20 19 17 18 17 17 16 17 15 10 7 8 10 11 12 14 11 13 16 11 13 12 9 7 10 12
37 36 35 32 29 28 29 28 26 25 25 25 25 24 24 23 22 21 21 20 19 19 18 15 16 16 16 12 12 13 13 13 13 11 9 15 9 10 11 12 11 8 10
43 40 39 37 33 33 32 32 30 28 28 28 28 28 27 26 24 24 23 22 21 21 20 18 19 20 18 17 15 14 13 11 11 10 7 12 13 13 13 12 14 14 13
47 46 41 39 37 34 33 35 37 35 35 33 33 31 30 29 27 27 26 25 24 25 23 22 21 21 21 20 18 16 16 14 16 18 16 13 17 16 17 19 16 16 16
31 39 48 41 42 38 33 36 40 39 39 39 37 36 37 34 33 31 30 29 28 27 26 25 25 25 25 26 25 25 24 22 22 21 28 22 21 23 20 24 23 22 21
Wind_Direction
126 127 126 122 123 117 122 121 123 120 113 107 107 110 112 114 115 111 108 107 104 96 89 84 79 75 69 64 63 58 53 50 47 46 44 39 35 32 28 30 33 33 31
133 133 130 127 125 122 125 129 124 117 115 112 116 119 117 116 112 111 111 109 100 95 89 82 75 70 65 60 58 57 54 52 47 46 44 42 34 26 25 31 30 36 38
136 136 136 134 127 128 132 129 125 122 114 116 120 120 117 114 111 113 112 107 100 91 85 79 72 68 62 58 57 55 53 51 48 45 47 44 38 35 30 33 33 39 42
135 135 136 133 132 137 136 132 127 117 119 118 121 120 119 116 118 116 111 103 95 86 79 74 70 64 59 55 54 52 48 47 48 44 41 41 37 36 32 39 44 45 42
130 132 137 137 138 142 136 131 124 121 123 123 125 126 124 124 123 118 108 100 93 83 74 70 66 60 54 50 47 48 47 44 44 47 46 42 41 38 36 35 38 41 40
132 130 139 141 138 140 137 134 132 128 131 130 132 132 128 131 127 113 102 94 86 78 71 67 63 59 53 48 46 42 41 43 41 41 44 45 43 39 39 38 37 40 36
133 138 139 136 138 141 140 134 132 134 136 138 140 140 137 137 128 119 110 95 83 74 66 64 63 58 51 44 42 41 36 37 39 37 39 43 42 41 40 40 38 38 37
132 138 139 138 139 135 132 139 145 141 139 140 148 147 144 142 133 132 121 102 84 78 67 63 59 54 48 42 38 39 33 32 37 36 34 39 42 41 40 39 40 40 40
136 137 141 143 141 140 139 145 154 144 140 141 155 158 154 144 139 137 129 111 94 84 70 62 56 50 43 40 32 34 31 30 36 36 36 37 38 40 42 40 39 42 42
143 138 145 150 151 150 150 153 156 152 152 150 155 168 165 158 160 151 136 127 119 99 78 67 58 48 40 30 24 29 28 36 34 35 35 37 35 36 38 41 40 41 42
158 150 145 144 151 155 156 157 163 167 168 161 162 171 175 174 176 175 168 184 155 123 90 68 56 38 31 21 14 26 28 33 33 30 33 36 33 31 34 38 39 41 40
170 171 170 166 166 165 161 170 175 175 172 178 175 174 186 185 184 187 183 176 175 151 108 57 54 32 17 13 8 19 26 26 32 30 30 35 35 33 35 35 36 39 40
189 191 191 188 179 182 177 172 178 179 182 187 187 185 192 197 198 200 205 200 201 196 139 46 33 19 9 7 5 10 17 23 31 35 29 28 34 33 32 33 37 36 36
192 195 198 202 199 196 189 184 182 182 188 199 197 199 203 213 221 219 217 222 224 221 210 305 10 359 0 354 357 3 10 19 24 35 32 25 27 32 29 30 33 31 29
197 195 198 197 201 203 199 194 194 190 194 201 207 212 216 225 231 239 239 247 250 246 251 286 320 333 346 345 352 2 359 15 17 26 35 29 24 25 28 27 28 30 24
202 203 202 201 205 207 203 205 205 206 205 210 214 221 222 231 242 254 260 265 276 277 274 278 294 316 338 338 344 348 357 6 20 17 31 29 26 22 23 27 25 25 26
208 207 211 209 209 214 217 220 220 217 215 218 224 225 227 236 243 253 262 262 264 274 277 282 290 309 322 327 332 341 348 5 11 6 20 24 16 18 18 24 26 24 25
218 214 215 218 214 219 221 225 230 228 230 231 233 239 241 240 247 250 255 257 261 268 274 286 296 307 310 312 323 328 337 339 336 353 2 10 7 9 11 13 22 25 20
218 220 220 224 229 223 227 230 232 238 237 239 246 250 254 257 255 253 259 262 265 272 279 287 297 310 320 315 309 310 316 299 297 327 344 344 352 350 351 0 12 15 21
229 230 230 235 225 227 229 232 236 238 242 241 240 245 250 256 256 258 259 261 264 267 273 279 282 292 300 302 295 296 283 272 286 303 322 329 336 338 343 337 355 0 1
234 235 236 235 237 233 232 233 236 236 241 243 244 246 245 248 254 258 261 263 264 266 266 274 279 283 290 288 268 264 281 293 297 307 316 320 318 318 327 325 328 336 341
236 236 236 236 238 237 234 239 239 240 242 246 250 250 252 250 249 255 257 259 264 264 265 268 273 275 269 255 257 269 282 292 305 317 318 312 315 314 320 322 317 317 319
238 239 239 238 237 240 244 242 240 241 244 246 248 251 253 254 255 256 257 257 259 262 261 262 265 267 271 269 271 276 280 288 295 306 320 307 325 316 319 323 322 322 315
244 240 240 240 239 241 245 250 246 243 245 250 251 250 252 254 256 256 256 255 256 261 262 262 266 273 273 273 268 269 273 280 287 295 294 291 309 308 307 308 307 309 304
240 238 239 240 240 243 243 248 252 251 250 249 252 253 255 255 253 254 254 254 254 256 259 260 262 265 270 272 271 271 270 272 278 285 284 282 288 292 295 294 294 291 292
237 240 241 242 243 240 238 242 247 249 247 248 249 252 256 256 257 256 256 256 257 259 260 258 257 260 263 268 274 277 278 278 278 282 285 287 284 285 285 286 289 289 285
Height
5935 5936 5937 5939 5940 5940 5941 5942 5943 5945 5946 5947 5948 5949 5950 5951 5953 5953 5954 5955 5955 5954 5953 5953 5952 5951 5949 5948 5946 5944 5941 5938 5934 5930 5927 5924 5921 5916 5913 5909 5905 5903 5899
5937 5938 5940 5941 5942 5944 5945 5946 5947 5948 5949 5950 5951 5953 5954 5956 5957 5958 5959 5959 5959 5958 5957 5956 5955 5955 5954 5952 5950 5948 5945 5942 5938 5934 5929 5926 5922 5919 5915 5911 5907 5904 5902
5939 5940 5941 5943 5944 5946 5947 5949 5950 5951 5953 5954 5955 5957 5959 5960 5962 5963 5963 5963 5963 5962 5961 5961 5959 5959 5958 5957 5954 5951 5949 5945 5941 5937 5933 5929 5926 5921 5917 5912 5909 5906 5903
5940 5941 5943 5945 5946 5947 5949 5952 5953 5955 5956 5957 5959 5961 5962 5964 5966 5967 5967 5968 5967 5966 5966 5965 5964 5963 5962 5960 5958 5956 5952 5949 5945 5941 5936 5932 5928 5924 5919 5915 5910 5908 5905
5941 5943 5945 5946 5947 5950 5952 5955 5956 5958 5959 5961 5962 5964 5965 5967 5968 5970 5970 5970 5970 5969 5969 5968 5968 5966 5965 5964 5961 5959 5956 5953 5949 5945 5941 5937 5933 5928 5923 5918 5914 5911 5907
5943 5945 5946 5948 5950 5952 5955 5957 5959 5960 5961 5962 5964 5966 5968 5970 5971 5972 5973 5973 5973 5973 5973 5972 5971 5969 5968 5967 5965 5962 5959 5956 5953 5949 5945 5941 5937 5932 5927 5922 5918 5914 5911
5945 5947 5949 5951 5953 5955 5957 5960 5961 5963 5964 5964 5966 5968 5970 5972 5973 5974 5975 5975 5975 5975 5976 5975 5974 5972 5971 5970 5967 5965 5962 5958 5955 5952 5948 5945 5941 5936 5932 5927 5922 5918 5914
5948 5950 5952 5954 5955 5957 5959 5961 5963 5965 5966 5967 5968 5970 5972 5974 5975 5975 5976 5977 5977 5977 5977 5977 5976 5975 5974 5973 5970 5968 5964 5961 5957 5954 5951 5948 5944 5940 5936 5932 5928 5924 5919
5952 5953 5954 5956 5958 5959 5960 5962 5965 5966 5968 5969 5971 5972 5973 5976 5977 5978 5978 5978 5979 5979 5978 5979 5978 5977 5977 5975 5973 5971 5967 5963 5961 5957 5954 5950 5947 5944 5940 5937 5933 5929 5925
5954 5955 5957 5958 5960 5961 5962 5963 5966 5968 5969 5970 5972 5973 5974 5976 5977 5979 5980 5979 5980 5980 5979 5980 5979 5978 5978 5977 5974 5973 5969 5966 5964 5960 5956 5953 5949 5946 5944 5941 5937 5934 5930
5954 5956 5959 5961 5962 5962 5963 5964 5967 5968 5970 5971 5973 5974 5975 5975 5976 5978 5979 5980 5980 5980 5980 5980 5980 5980 5980 5978 5975 5975 5971 5967 5965 5962 5959 5956 5952 5949 5946 5944 5941 5938 5935
5955 5956 5958 5960 5961 5963 5964 5966 5967 5968 5970 5972 5973 5974 5975 5975 5975 5976 5977 5978 5980 5980 5980 5981 5981 5980 5980 5979 5977 5976 5973 5969 5967 5964 5961 5958 5955 5951 5949 5946 5944 5942 5939
5955 5956 5957 5959 5960 5962 5963 5965 5967 5968 5970 5971 5972 5974 5975 5976 5976 5976 5977 5977 5978 5980 5981 5980 5981 5980 5979 5979 5978 5977 5974 5971 5969 5965 5963 5960 5957 5953 5951 5949 5947 5945 5942
5953 5955 5956 5958 5958 5960 5962 5964 5966 5967 5969 5970 5971 5973 5974 5976 5977 5976 5976 5977 5978 5978 5979 5980 5980 5980 5979 5978 5977 5976 5975 5971 5969 5967 5964 5961 5958 5956 5953 5951 5949 5947 5945
5952 5953 5955 5957 5959 5960 5961 5963 5965 5966 5968 5969 5971 5972 5973 5974 5975 5977 5977 5977 5977 5978 5979 5979 5979 5980 5979 5978 5976 5976 5974 5972 5969 5968 5966 5962 5959 5957 5955 5952 5949 5948 5946
5951 5953 5954 5956 5959 5960 5961 5962 5963 5965 5967 5968 5970 5971 5973 5974 5975 5975 5976 5977 5977 5978 5978 5978 5979 5978 5978 5978 5976 5974 5974 5972 5970 5967 5966 5964 5961 5958 5956 5954 5951 5949 5947
5949 5951 5953 5954 5955 5958 5961 5963 5964 5964 5965 5967 5968 5969 5971 5973 5973 5974 5975 5975 5976 5977 5976 5977 5977 5977 5976 5976 5975 5974 5972 5971 5970 5967 5965 5964 5962 5960 5957 5955 5953 5951 5949
5947 5948 5951 5953 5955 5956 5959 5961 5962 5964 5965 5966 5967 5968 5969 5970 5971 5972 5973 5973 5974 5975 5974 5975 5976 5976 5975 5975 5973 5972 5971 5969 5968 5967 5965 5963 5962 5960 5957 5955 5954 5952 5950
5944 5946 5948 5951 5953 5955 5957 5958 5960 5962 5962 5964 5966 5967 5968 5968 5970 5970 5971 5972 5972 5972 5972 5973 5974 5974 5974 5973 5973 5971 5969 5968 5967 5965 5964 5961 5961 5960 5957 5954 5953 5951 5950
5941 5943 5945 5947 5949 5950 5952 5954 5957 5958 5960 5961 5962 5963 5964 5965 5966 5967 5968 5969 5969 5970 5970 5970 5970 5970 5970 5970 5969 5968 5967 5966 5965 5963 5962 5961 5959 5959 5957 5953 5952 5950 5949
5937 5939 5941 5943 5946 5947 5949 5950 5952 5954 5956 5957 5958 5959 5960 5961 5962 5963 5964 5965 5965 5966 5967 5966 5966 5966 5966 5966 5966 5965 5965 5963 5963 5962 5961 5959 5957 5956 5955 5953 5951 5949 5948
5932 5934 5936 5938 5940 5943 5945 5947 5948 5949 5951 5953 5954 5956 5957 5957 5958 5960 5960 5960 5961 5962 5962 5963 5963 5963 5963 5963 5964 5963 5963 5962 5960 5959 5958 5955 5955 5953 5951 5950 5949 5947 5945
5924 5929 5931 5933 5935 5937 5939 5941 5942 5943 5945 5947 5949 5951 5952 5954 5955 5955 5956 5957 5957 5958 5958 5958 5959 5959 5958 5959 5959 5958 5958 5958 5957 5956 5955 5950 5950 5950 5949 5947 5946 5944 5941
5917 5920 5924 5926 5928 5931 5933 5936 5937 5938 5939 5941 5943 5944 5946 5948 5950 5950 5951 5952 5951 5952 5953 5953 5953 5953 5954 5953 5953 5953 5952 5953 5952 5952 5952 5949 5947 5946 5945 5944 5942 5941 5939
5907 5911 5915 5919 5920 5924 5927 5928 5929 5931 5932 5934 5936 5938 5940 5941 5943 5943 5943 5944 5944 5944 5947 5947 5947 5946 5946 5947 5947 5948 5948 5948 5947 5945 5945 5946 5943 5942 5940 5939 5938 5936 5935
5898 5902 5905 5908 5911 5914 5917 5919 5919 5920 5923 5925 5926 5929 5931 5932 5934 5936 5937 5937 5937 5938 5939 5940 5940 5940 5939 5939 5939 5940 5940 5941 5941 5941 5936 5939 5938 5936 5936 5933 5931 5931 5930